Volver al catálogo

FENGYUN 1C DEB

ActivoSSO
NORAD 29868·DEBRIS·🇨🇳 China

Lanzado May 10, 1999 desde Taiyuan Satellite Launch Center

Loading…

Próximos Pases (próximas 24 horas)

TLE

ActualizadoSource: Space-Track

Época: Sep 14, 2026, 09:10 UTC

1 29868U 99025FN  26257.38263707  .00004372  00000-0  41486-3 0  9998
2 29868  97.9132 305.0343 0186891 188.3268 303.5120 14.81762038 43734

Sigue FENGYUN 1C DEB en tiempo real con AllMySat

Download on the App Store